[[{"header":{"parameterUnit":"m.s-1","parameterCategory":1,"la1":30.2991,"la2":30.254,"lo1":-89.0895,"lo2":-89.0444,"dy":0.0017,"dx":0.0017,"nx":28,"ny":28,"refTime":"2024-06-22T09:00:00:Z","depth":0,"parameterNumber":2,"parameterNumberName":"U-component_of_WINDS"},"data":[0,0,0,0,0,0,0,0,0,0,0,0,0,0,0,0,0,0,0,0,0,0,0,0,0,0,0,0,0,0,0,0,0,0,0,0,0,0,0,0,0,0,0,0,0,0,0,0,0,0,0,0,0,0,0,0,0,0,0.7423,0.7423,0,0.746,0.746,0.7461,0.7484,0.7484,0.7484,0.7484,0.7523,0.7524,0.7525,0,0,0,0,0,0,0,0,0,0,0,0,0,0.7373,0.7374,0.7423,0.7423,0.7423,0.746,0.746,0.7461,0.7484,0.7484,0.7484,0.7484,0.7523,0.7524,0.7525,0,0,0,0,0,0,0,0,0,0,0,0,0,0.7401,0.7374,0.7422,0.7439,0.7441,0.746,0.746,0.7461,0.7484,0.7484,0.7484,0.7484,0.7522,0.7524,0.7525,0.753,0,0,0.7529,0.753,0,0,0,0,0,0,0,0,0.7399,0.7403,0.7436,0.7438,0.744,0.7467,0.7457,0.7484,0.7483,0.7467,0.7484,0.7484,0.7504,0.7507,0.7514,0.7532,0.7533,0.7529,0.753,0.7531,0.7531,0,0,0,0,0,0,0,0.7397,0.7401,0.7437,0.7437,0.7439,0.7445,0.745,0.7462,0.7484,0.7469,0.7471,0.7475,0.7505,0.7512,0.7515,0.7534,0.7529,0.7531,0.7531,0.7532,0.7559,0.7559,0,0,0,0,0,0,0.7392,0.7399,0.7436,0.7438,0.742,0.7446,0.7451,0.7458,0.7484,0.7488,0.7474,0.7476,0.751,0.7513,0.7516,0.7524,0.7531,0.7532,0.7533,0.7559,0.7559,0.7559,0,0,0,0,0,0,0.7391,0.7395,0.7435,0.7419,0.7425,0.7447,0.7455,0.7459,0.7466,0.7489,0.7493,0.7477,0.751,0.7514,0.7527,0.7526,0.7533,0.7534,0.7559,0.7559,0.7559,0.754,0,0,0,0,0,0,0.739,0.7395,0.7397,0.7419,0.7426,0.7444,0.7455,0.746,0.7468,0.747,0.7492,0.7496,0.7511,0.7524,0.7528,0.7528,0.7535,0.7559,0.7559,0.7559,0.7541,0.7539,0.7538,0,0,0,0,0,0.7388,0.739,0.7397,0.7401,0.7428,0.7444,0.7447,0.7463,0.7468,0.747,0.7485,0.7496,0.7525,0.7525,0.753,0.753,0.7559,0.7559,0.7559,0.7541,0.7539,0.7538,0,0,0,0,0,0,0.7367,0.7393,0.7401,0.741,0.7424,0.7447,0.745,0.7461,0.7474,0.7475,0.7495,0.75,0.751,0.7522,0.7521,0.7537,0.7544,0.7544,0.7529,0.7527,0.7526,0.7523,0.7536,0,0,0,0,0,0.7363,0.7373,0.7396,0.7402,0.7408,0.7428,0.7436,0.7447,0.7463,0.7469,0.7484,0.75,0.7513,0.7521,0.7534,0.7543,0.7548,0.7545,0.7544,0.7542,0.7542,0.7549,0.7548,0.7558,0.7558,0.7558,0,0,0.7356,0.7371,0.7376,0.7398,0.741,0.7421,0.7433,0.7443,0.7452,0.7471,0.7483,0.7495,0.7513,0.7524,0.7529,0.7534,0.7541,0.7542,0.7541,0.7542,0.7548,0.7547,0.7546,0.7558,0.7558,0.7558,0,0,0.7347,0.736,0.7367,0.7379,0.7398,0.7411,0.7412,0.7434,0.7443,0.7456,0.747,0.7481,0.7502,0.7515,0.7524,0.7522,0.7532,0.7525,0.7518,0.7523,0.7523,0.7522,0.7521,0.7521,0.7526,0.7526,0.7526,0,0.7336,0.7352,0.7369,0.7378,0.7388,0.7405,0.7413,0.7424,0.7446,0.7452,0.7457,0.7484,0.7498,0.7512,0.7512,0.7519,0.7521,0.7523,0.7521,0.7521,0.752,0.752,0.752,0.7525,0.7525,0.7525,0.7525,0,0.7337,0.7347,0.7351,0.7371,0.7381,0.7389,0.7408,0.7416,0.7427,0.744,0.7453,0.747,0.7487,0.7492,0.7502,0.7508,0.751,0.7517,0.7525,0.7518,0.7518,0.7518,0.7523,0.7524,0.7524,0.7524,0,0,0.7315,0.7346,0.7347,0.7357,0.7379,0.7388,0.7398,0.7414,0.7421,0.7436,0.7445,0.7463,0.747,0.7481,0.7493,0.7498,0.7496,0.7505,0.7506,0.7503,0.7503,0.7497,0.7496,0.7503,0.7503,0.7503,0.7501,0,0.731,0.7328,0.7344,0.7356,0.7366,0.7384,0.7392,0.7407,0.742,0.7431,0.7446,0.7458,0.7467,0.7474,0.7479,0.7495,0.7496,0.7495,0.7512,0.7512,0.7506,0.7496,0.749,0.7487,0.7501,0.7501,0.7502,0,0.7307,0.7321,0.7334,0.7356,0.7361,0.7368,0.7385,0.7395,0.7413,0.7422,0.7434,0.7447,0.7458,0.7465,0.7481,0.748,0.7488,0.7497,0.7497,0.7499,0.7506,0.7498,0.7487,0.7487,0.7502,0.7502,0.7502,0,0.729,0.7312,0.7323,0.7331,0.7357,0.7361,0.7373,0.739,0.74,0.7415,0.7421,0.7437,0.7446,0.7458,0.7476,0.7479,0.7491,0.7498,0.7499,0.7498,0.75,0.75,0.749,0.7505,0.7505,0.7505,0.7505,0,0.7283,0.729,0.7316,0.7322,0.7331,0.735,0.7359,0.7371,0.7387,0.7397,0.7413,0.7422,0.7445,0.7457,0.747,0.7482,0.7486,0.7494,0.7497,0.7492,0.7491,0.7497,0.7498,0.7505,0.7505,0.7505,0.7505,0,0.7265,0.7283,0.7296,0.7319,0.7325,0.7331,0.7351,0.7359,0.7373,0.7385,0.7389,0.7411,0.7426,0.7444,0.7465,0.7474,0.7485,0.749,0.7478,0.748,0.748,0.7479,0.7473,0.7474,0.7489,0.7489,0.7488,0,0.7259,0.7265,0.7289,0.7297,0.7308,0.732,0.7329,0.7348,0.7358,0.7379,0.7384,0.74,0.7414,0.7437,0.7455,0.7471,0.7477,0.7474,0.7479,0.7474,0.7477,0.7476,0.7477,0.7472,0.7472,0.7472,0.7471,0,0.7247,0.7255,0.7268,0.7284,0.7295,0.7309,0.7323,0.7329,0.7351,0.7361,0.7376,0.7387,0.7408,0.7424,0.7443,0.7455,0.7467,0.747,0.747,0.7465,0.7458,0.7462,0.7474,0.7469,0.747,0.747,0.747,0.747,0.7235,0.7241,0.7259,0.7273,0.7286,0.73,0.7308,0.7323,0.7336,0.7354,0.7365,0.738,0.7399,0.7425,0.7437,0.7449,0.7454,0.7455,0.7455,0.7455,0.7453,0.7456,0.7453,0.7453,0.7453,0.7453,0.7453,0,0.7223,0.7236,0.7249,0.7268,0.728,0.729,0.7307,0.7316,0.7328,0.7345,0.7358,0.7376,0.7391,0.7411,0.7428,0.7434,0.744,0.7438,0.7438,0.744,0.7448,0.7446,0.7433,0.7433,0.7433,0.7433,0.7433,0.7433,0.7218,0.723,0.7241,0.7259,0.7272,0.7286,0.7295,0.7308,0.7321,0.734,0.7353,0.7365,0.7383,0.7402,0.7417,0.7422,0.7428,0.7424,0.7431,0.7438,0.744,0.7441,0.7439,0.7425,0.7425,0.7422,0.7422,0.7422]},{"header":{"parameterUnit":"m.s-1","parameterCategory":1,"la1":30.2991,"la2":30.254,"lo1":-89.0895,"lo2":-89.0444,"dy":0.0017,"dx":0.0017,"nx":28,"ny":28,"refTime":"2024-06-22T09:00:00:Z","depth":0,"parameterNumber":3,"parameterNumberName":"V-component_of_WINDS"},"data":[0,0,0,0,0,0,0,0,0,0,0,0,0,0,0,0,0,0,0,0,0,0,0,0,0,0,0,0,0,0,0,0,0,0,0,0,0,0,0,0,0,0,0,0,0,0,0,0,0,0,0,0,0,0,0,0,0,0,0.5618,0.5619,0,0.5728,0.573,0.5731,0.5772,0.5772,0.5772,0.5771,0.5886,0.5889,0.5892,0,0,0,0,0,0,0,0,0,0,0,0,0,0.5446,0.5448,0.5618,0.562,0.5621,0.5728,0.573,0.5731,0.5772,0.5772,0.5771,0.5771,0.5885,0.5889,0.5893,0,0,0,0,0,0,0,0,0,0,0,0,0,0.5535,0.5449,0.5618,0.5654,0.5659,0.5728,0.573,0.5732,0.5772,0.5772,0.5771,0.5771,0.5883,0.5888,0.5893,0.5935,0,0,0.5909,0.5911,0,0,0,0,0,0,0,0,0.5529,0.5541,0.5648,0.5652,0.5657,0.5736,0.5711,0.58,0.5773,0.5729,0.5771,0.5771,0.5837,0.5845,0.5867,0.594,0.5945,0.5909,0.5912,0.5914,0.5916,0,0,0,0,0,0,0,0.5523,0.5536,0.5662,0.5649,0.5655,0.5666,0.5678,0.5728,0.5785,0.5733,0.5736,0.5749,0.5839,0.5862,0.587,0.5947,0.5909,0.5914,0.5917,0.5919,0.606,0.606,0,0,0,0,0,0,0.5511,0.5531,0.5658,0.5665,0.5591,0.5669,0.5683,0.5711,0.5784,0.5795,0.5749,0.575,0.5854,0.5864,0.5874,0.5928,0.5914,0.5919,0.5922,0.6059,0.606,0.6061,0,0,0,0,0,0,0.5507,0.5522,0.5654,0.5599,0.5617,0.5673,0.5704,0.5714,0.5737,0.5796,0.5807,0.5762,0.5854,0.5867,0.5919,0.5933,0.5921,0.5926,0.6058,0.6059,0.606,0.6035,0,0,0,0,0,0,0.5502,0.552,0.5536,0.5599,0.5619,0.5696,0.5705,0.5716,0.5745,0.5748,0.5811,0.5821,0.5855,0.5912,0.5924,0.5939,0.593,0.6057,0.6059,0.606,0.6035,0.6035,0.6036,0,0,0,0,0,0.5495,0.5525,0.5537,0.5552,0.564,0.5697,0.5709,0.5746,0.5746,0.5763,0.5801,0.5819,0.5929,0.5917,0.5931,0.5948,0.6057,0.6058,0.606,0.6035,0.6035,0.6036,0,0,0,0,0,0,0.5463,0.5534,0.5548,0.5598,0.5641,0.5704,0.5726,0.5745,0.5789,0.579,0.5834,0.5848,0.5897,0.5928,0.5913,0.5992,0.5994,0.5999,0.597,0.5971,0.5971,0.5963,0.5934,0,0,0,0,0,0.5461,0.5501,0.5561,0.56,0.5621,0.567,0.5696,0.5721,0.5767,0.5786,0.5828,0.5873,0.5917,0.5946,0.599,0.604,0.6054,0.6058,0.6059,0.6058,0.6062,0.6091,0.6093,0.6066,0.6066,0.6066,0,0,0.5459,0.5503,0.5525,0.5595,0.5631,0.5672,0.5685,0.5727,0.5758,0.5793,0.5844,0.5876,0.5929,0.598,0.6005,0.6008,0.6073,0.606,0.606,0.6064,0.6093,0.6095,0.6098,0.6067,0.6067,0.6066,0,0,0.5476,0.5513,0.555,0.5585,0.564,0.5672,0.568,0.574,0.5763,0.5815,0.5842,0.5879,0.5955,0.5992,0.6021,0.6051,0.607,0.6064,0.6065,0.6093,0.6095,0.6097,0.6108,0.6112,0.6067,0.6067,0.6067,0,0.5467,0.5528,0.5566,0.5607,0.5637,0.5669,0.5707,0.574,0.5806,0.5826,0.5828,0.5924,0.5962,0.6022,0.6029,0.6051,0.6063,0.6057,0.6091,0.6094,0.6096,0.6108,0.6112,0.6066,0.6066,0.6066,0.6067,0,0.5514,0.5556,0.558,0.5642,0.5675,0.5713,0.5758,0.5786,0.5808,0.584,0.5893,0.594,0.5994,0.601,0.6032,0.6073,0.6073,0.6082,0.6085,0.6097,0.6109,0.6113,0.6065,0.6065,0.6065,0.6066,0,0,0.5514,0.5597,0.5605,0.5633,0.5695,0.5729,0.577,0.5822,0.5846,0.589,0.5926,0.5989,0.5998,0.603,0.6056,0.608,0.6102,0.6087,0.6089,0.6088,0.6151,0.6144,0.6148,0.6114,0.6115,0.6116,0.6146,0,0.554,0.5613,0.5648,0.5706,0.5746,0.5777,0.5812,0.5855,0.5885,0.5924,0.5959,0.6003,0.6011,0.6031,0.6056,0.6094,0.6115,0.6092,0.6148,0.615,0.6134,0.6154,0.6147,0.6173,0.6151,0.6152,0.6152,0,0.5579,0.5623,0.5684,0.5742,0.576,0.5791,0.5842,0.5878,0.5927,0.5948,0.5983,0.6009,0.6053,0.6052,0.6114,0.6098,0.6123,0.6145,0.6147,0.6154,0.6152,0.6162,0.6183,0.6187,0.6159,0.6159,0.6158,0,0.5573,0.5647,0.5694,0.5718,0.5786,0.5807,0.5836,0.5884,0.5913,0.5958,0.5978,0.6027,0.6054,0.6092,0.613,0.6126,0.6189,0.6191,0.6208,0.6207,0.622,0.6219,0.6245,0.6235,0.6235,0.6235,0.6235,0,0.5598,0.5635,0.5692,0.5721,0.5763,0.5803,0.5844,0.5876,0.5918,0.5954,0.5984,0.6017,0.6066,0.6105,0.6135,0.6182,0.6194,0.6213,0.622,0.621,0.6208,0.6228,0.6227,0.6236,0.6236,0.6236,0.6235,0,0.5599,0.5639,0.5692,0.5752,0.5767,0.5796,0.5847,0.5877,0.5909,0.5954,0.5967,0.6018,0.6065,0.6107,0.617,0.6191,0.6239,0.6248,0.6223,0.6227,0.6242,0.624,0.6282,0.629,0.6274,0.6274,0.6274,0,0.5613,0.5641,0.5704,0.573,0.5759,0.58,0.583,0.587,0.59,0.5957,0.598,0.603,0.6072,0.6147,0.619,0.6239,0.6249,0.6261,0.6257,0.6246,0.625,0.6248,0.6252,0.6261,0.6261,0.6261,0.6261,0,0.5632,0.5651,0.5692,0.5741,0.5775,0.5815,0.5857,0.5876,0.5925,0.5957,0.6006,0.6038,0.6102,0.6152,0.6205,0.6236,0.6257,0.6262,0.6268,0.6259,0.6243,0.6252,0.6223,0.6261,0.6261,0.6261,0.6261,0.6261,0.5641,0.5668,0.5716,0.5761,0.5796,0.5834,0.5864,0.59,0.5941,0.5996,0.6018,0.6068,0.6116,0.6189,0.622,0.6261,0.6264,0.6273,0.6276,0.6278,0.6276,0.6236,0.627,0.627,0.627,0.627,0.6271,0,0.5662,0.5695,0.5736,0.5792,0.5828,0.5843,0.589,0.5919,0.5962,0.6005,0.6045,0.6102,0.615,0.6196,0.6246,0.6269,0.628,0.6281,0.628,0.6287,0.627,0.626,0.6272,0.6272,0.6272,0.6272,0.6272,0.6272,0.5678,0.5725,0.5749,0.5813,0.5846,0.5894,0.592,0.5955,0.5989,0.605,0.609,0.6119,0.6164,0.6218,0.6262,0.6275,0.6292,0.6291,0.6306,0.6289,0.6289,0.6288,0.6278,0.6294,0.6294,0.632,0.632,0.632]}]]